Corpus Christi, TX

3:36 AM CDT on April 23, 2018 (GMT -0500)
Corpus Christi International

Weather History for KCRP - March, 2014

Change the Weather History Date:

Thursday, March 6, 2014

  Actual Average Record
Temperature  
Mean Temperature 59 °F 64 °F  
Max Temperature 70 °F 74 °F 99 °F (1991)
Min Temperature 47 °F 54 °F 29 °F (1989)
Degree Days  
Heating Degree Days 6 4  
Month to date heating degree days 72 24  
Since 1 July heating degree days 1071 824  
Cooling Degree Days 0 3  
Month to date cooling degree days 4 17  
Year to date cooling degree days 81 93  
Growing Degree Days 8 (Base 50)    
Moisture  
Dew Point 47 °F    
Average Humidity 65    
Maximum Humidity 89    
Minimum Humidity 40    
Precipitation  
Precipitation 0.00 in 0.07 in 1.86 in (1906)
Month to date precipitation 0.86 0.43  
Year to date precipitation 1.77 3.90  
Snow  
Snow 0.00 in - - ()
Month to date snowfall 0.0  
Since 1 July snowfall T  
Snow Depth 0.00 in    
Sea Level Pressure  
Sea Level Pressure 30.14 in    
Wind  
Wind Speed 9 mph (North)    
Max Wind Speed 20 mph    
Max Gust Speed 23 mph    
Visibility 9 miles    
Events      
T = Trace of Precipitation, MM = Missing Value Source: NWS Daily Summary

Daily Weather History Graph

Daily Weather History Graph

Search for Another Location

Airport or City:

Astronomy

Mar. 06, 2014 Rise Set
Actual Time 6:49 AM CST 6:33 PM CST
Civil Twilight 6:25 AM CST 6:56 PM CST
Nautical Twilight 5:58 AM CST 7:24 PM CST
Astronomical Twilight 5:31 AM CST 7:51 PM CST
Moon 10:27 AM CST (3/6) No Moon Set
Length of Visible Light 12h 31m
Length of Day
11h 44m
Waxing Crescent, 32% of the Moon is Illuminated
Mar 6
Waxing Crescent
Mar 8
First Quarter
Mar 16
Full
Mar 23
Last Quarter
Mar 30
New

Hourly Weather History & Observations

Time (CST) Temp. Dew Point Humidity Pressure Visibility Wind Dir Wind Speed Gust Speed Precip Events Conditions
12:51 AM 55.0 °F 51.1 °F 86% 30.13 in 10.0 mi North 5.8 mph - N/A   Mostly Cloudy
1:47 AM 55.4 °F 51.8 °F 88% 30.13 in 10.0 mi North 6.9 mph - N/A   Overcast
1:51 AM 55.9 °F 51.1 °F 84% 30.13 in 10.0 mi North 6.9 mph - N/A   Overcast
2:51 AM 55.9 °F 51.1 °F 84% 30.13 in 10.0 mi North 8.1 mph - N/A   Mostly Cloudy
2:56 AM 55.4 °F 50.0 °F 82% 30.13 in 10.0 mi North 6.9 mph - N/A   Scattered Clouds
3:25 AM 55.4 °F 50.0 °F 82% 30.13 in 10.0 mi North 10.4 mph - N/A   Mostly Cloudy
3:32 AM 55.4 °F 50.0 °F 82% 30.13 in 10.0 mi North 12.7 mph - N/A   Overcast
3:51 AM 54.0 °F 50.0 °F 86% 30.14 in 7.0 mi North 12.7 mph - N/A   Overcast
4:47 AM 51.8 °F 48.2 °F 88% 30.14 in 7.0 mi North 6.9 mph - N/A   Partly Cloudy
4:51 AM 52.0 °F 48.9 °F 89% 30.14 in 7.0 mi North 8.1 mph - N/A   Partly Cloudy
5:51 AM 51.1 °F 46.0 °F 83% 30.17 in 6.0 mi North 11.5 mph - N/A   Haze
6:51 AM 50.0 °F 45.0 °F 83% 30.19 in 6.0 mi North 11.5 mph - N/A   Haze
7:51 AM 52.0 °F 45.0 °F 77% 30.21 in 7.0 mi North 11.5 mph - N/A   Partly Cloudy
8:51 AM 55.0 °F 45.0 °F 69% 30.23 in 8.0 mi North 16.1 mph - N/A   Partly Cloudy
9:51 AM 57.0 °F 45.0 °F 64% 30.24 in 9.0 mi NNW 10.4 mph - N/A   Scattered Clouds
10:51 AM 60.1 °F 46.9 °F 62% 30.23 in 9.0 mi North 8.1 mph - N/A   Scattered Clouds
11:51 AM 62.1 °F 48.0 °F 60% 30.22 in 10.0 mi Variable 6.9 mph - N/A   Scattered Clouds
12:51 PM 64.9 °F 48.9 °F 56% 30.20 in 10.0 mi North 10.4 mph 19.6 mph N/A   Scattered Clouds
1:51 PM 66.9 °F 48.0 °F 51% 30.16 in 10.0 mi NNW 11.5 mph - N/A   Scattered Clouds
2:51 PM 69.1 °F 46.0 °F 44% 30.13 in 10.0 mi NNW 10.4 mph - N/A   Scattered Clouds
3:51 PM 69.1 °F 45.0 °F 42% 30.10 in 10.0 mi North 11.5 mph - N/A   Partly Cloudy
4:51 PM 69.1 °F 44.1 °F 40% 30.08 in 10.0 mi NNW 10.4 mph - N/A   Mostly Cloudy
5:51 PM 66.0 °F 43.0 °F 43% 30.07 in 10.0 mi North 8.1 mph - N/A   Mostly Cloudy
6:51 PM 60.1 °F 46.9 °F 62% 30.06 in 10.0 mi Calm Calm - N/A   Mostly Cloudy
7:51 PM 53.1 °F 48.0 °F 83% 30.08 in 10.0 mi SE 9.2 mph - N/A   Mostly Cloudy
8:51 PM 51.1 °F 46.0 °F 83% 30.10 in 10.0 mi ESE 6.9 mph - N/A   Mostly Cloudy
9:51 PM 50.0 °F 46.0 °F 86% 30.11 in 10.0 mi SE 5.8 mph - N/A   Mostly Cloudy
10:51 PM 48.9 °F 45.0 °F 86% 30.11 in 10.0 mi SSE 3.5 mph - N/A   Mostly Cloudy
11:51 PM 46.9 °F 44.1 °F 90% 30.10 in 10.0 mi Calm Calm - N/A   Mostly Cloudy